[[{"header":{"parameterUnit":"m.s-1","parameterCategory":1,"la1":30.2991,"la2":30.254,"lo1":-89.0895,"lo2":-89.0444,"dy":0.0017,"dx":0.0017,"nx":28,"ny":28,"refTime":"2023-08-28T21:00:00:Z","depth":0,"parameterNumber":2,"parameterNumberName":"U-component_of_WINDS"},"data":[0,0,0,0,0,0,0,0,0,0,0,0,0,0,0,0,0,0,0,0,0,0,0,0,0,0,0,0,0,0,0,0,0,0,0,0,0,0,0,0,0,0,0,0,0,0,0,0,0,0,0,0,0,0,0,0,0,0,-2.0871,-2.0871,0,-2.0829,-2.0829,-2.0828,-2.0777,-2.0776,-2.0775,-2.0774,-2.073,-2.0729,-2.0729,0,0,0,0,0,0,0,0,0,0,0,0,0,-2.0905,-2.0905,-2.0871,-2.0871,-2.087,-2.0829,-2.0829,-2.0828,-2.0777,-2.0776,-2.0775,-2.0774,-2.073,-2.0729,-2.0729,0,0,0,0,0,0,0,0,0,0,0,0,0,-2.088,-2.0905,-2.0871,-2.084,-2.0836,-2.0829,-2.0829,-2.0828,-2.0777,-2.0776,-2.0774,-2.0773,-2.073,-2.0729,-2.0729,-2.0749,0,0,-2.0727,-2.0726,0,0,0,0,0,0,0,0,-2.0881,-2.0878,-2.0845,-2.0842,-2.0838,-2.0807,-2.0824,-2.0801,-2.0777,-2.0799,-2.0774,-2.0773,-2.0756,-2.0753,-2.0748,-2.0747,-2.0745,-2.0727,-2.0726,-2.0726,-2.0726,0,0,0,0,0,0,0,-2.0883,-2.088,-2.0854,-2.0844,-2.084,-2.0827,-2.0822,-2.082,-2.0785,-2.0797,-2.0794,-2.0789,-2.0754,-2.0749,-2.0747,-2.0744,-2.0727,-2.0726,-2.0726,-2.0725,-2.0756,-2.0758,0,0,0,0,0,0,-2.089,-2.0882,-2.0856,-2.0853,-2.0857,-2.0827,-2.0822,-2.0818,-2.0785,-2.0779,-2.079,-2.0787,-2.0751,-2.0747,-2.0745,-2.0766,-2.0726,-2.0725,-2.0725,-2.0755,-2.0757,-2.0758,0,0,0,0,0,0,-2.0891,-2.0888,-2.0857,-2.0866,-2.0862,-2.0828,-2.0824,-2.0818,-2.0812,-2.078,-2.0773,-2.0791,-2.0749,-2.0746,-2.0748,-2.0763,-2.0725,-2.0724,-2.0754,-2.0756,-2.0757,-2.0808,0,0,0,0,0,0,-2.0892,-2.0889,-2.0896,-2.0867,-2.0861,-2.0862,-2.0825,-2.0818,-2.0812,-2.0807,-2.0779,-2.0773,-2.0748,-2.0749,-2.0748,-2.0762,-2.0724,-2.0752,-2.0755,-2.0757,-2.0805,-2.0812,-2.0817,0,0,0,0,0,-2.0893,-2.0912,-2.0897,-2.0894,-2.087,-2.0863,-2.086,-2.0831,-2.0813,-2.082,-2.0799,-2.0774,-2.0762,-2.075,-2.0748,-2.0762,-2.0751,-2.0754,-2.0757,-2.0802,-2.081,-2.0817,0,0,0,0,0,0,-2.0944,-2.0908,-2.0891,-2.0901,-2.0885,-2.0855,-2.0863,-2.0841,-2.083,-2.0826,-2.079,-2.0784,-2.0791,-2.0777,-2.0764,-2.0779,-2.0753,-2.0755,-2.0789,-2.0796,-2.0802,-2.0805,-2.0723,0,0,0,0,0,-2.0956,-2.0954,-2.0922,-2.0934,-2.0928,-2.0897,-2.0893,-2.0872,-2.0854,-2.0848,-2.0827,-2.081,-2.0803,-2.0798,-2.079,-2.0803,-2.0795,-2.0811,-2.0817,-2.0823,-2.0825,-2.083,-2.0836,-2.0767,-2.0767,-2.0767,0,0,-2.0982,-2.0962,-2.0962,-2.0944,-2.093,-2.0928,-2.0892,-2.0891,-2.0889,-2.0847,-2.0848,-2.0832,-2.0812,-2.0819,-2.0822,-2.0807,-2.0842,-2.0826,-2.083,-2.083,-2.0833,-2.084,-2.0846,-2.0769,-2.0768,-2.0768,0,0,-2.1027,-2.1012,-2.102,-2.1006,-2.0985,-2.0965,-2.0967,-2.0939,-2.0927,-2.0928,-2.0896,-2.0893,-2.0881,-2.0867,-2.0859,-2.0899,-2.0875,-2.0897,-2.0928,-2.0934,-2.0939,-2.0944,-2.0957,-2.0963,-2.0899,-2.0899,-2.0899,0,-2.1061,-2.1057,-2.1027,-2.1028,-2.102,-2.0983,-2.0991,-2.0979,-2.0956,-2.0951,-2.0936,-2.092,-2.0903,-2.0907,-2.0917,-2.0911,-2.0912,-2.09,-2.0941,-2.0945,-2.0949,-2.0962,-2.0967,-2.0902,-2.0902,-2.0901,-2.0901,0,-2.11,-2.1098,-2.1106,-2.1086,-2.1079,-2.1084,-2.1053,-2.105,-2.103,-2.1011,-2.1012,-2.099,-2.0976,-2.0976,-2.0956,-2.0976,-2.0968,-2.0948,-2.092,-2.0959,-2.097,-2.0975,-2.0906,-2.0905,-2.0904,-2.0903,0,0,-2.1176,-2.1138,-2.1142,-2.1132,-2.1106,-2.1103,-2.1106,-2.1092,-2.109,-2.1076,-2.1076,-2.1067,-2.1047,-2.1038,-2.1016,-2.1021,-2.1053,-2.0999,-2.0998,-2.1009,-2.1073,-2.1089,-2.1095,-2.1037,-2.1038,-2.1038,-2.1075,0,-2.1216,-2.1219,-2.1191,-2.1201,-2.1198,-2.1162,-2.1164,-2.1148,-2.113,-2.1125,-2.1104,-2.1098,-2.1073,-2.1067,-2.107,-2.1048,-2.1065,-2.1045,-2.1036,-2.1036,-2.1042,-2.1101,-2.1118,-2.1153,-2.1079,-2.108,-2.108,0,-2.1263,-2.1252,-2.1261,-2.1235,-2.1232,-2.1235,-2.122,-2.1215,-2.1196,-2.1182,-2.1172,-2.1147,-2.1147,-2.1121,-2.1119,-2.1107,-2.1101,-2.109,-2.1091,-2.1088,-2.1061,-2.11,-2.1164,-2.1169,-2.1087,-2.1086,-2.1086,0,-2.1317,-2.1304,-2.1308,-2.13,-2.1269,-2.1272,-2.1259,-2.1238,-2.1232,-2.1219,-2.1214,-2.1202,-2.1194,-2.1185,-2.1156,-2.1141,-2.1158,-2.113,-2.1146,-2.1147,-2.1151,-2.1151,-2.1215,-2.1149,-2.1148,-2.1148,-2.1148,0,-2.1365,-2.1372,-2.1332,-2.1334,-2.1341,-2.1309,-2.1316,-2.13,-2.1282,-2.128,-2.1248,-2.1246,-2.121,-2.1204,-2.1182,-2.1184,-2.1181,-2.1169,-2.1163,-2.1172,-2.1173,-2.1167,-2.1164,-2.115,-2.1149,-2.1149,-2.1149,0,-2.1426,-2.14,-2.1401,-2.1372,-2.1365,-2.1371,-2.1345,-2.1346,-2.1326,-2.1323,-2.1321,-2.1289,-2.1281,-2.1252,-2.1236,-2.1221,-2.1229,-2.1218,-2.1236,-2.1232,-2.125,-2.1248,-2.1311,-2.1318,-2.1248,-2.1249,-2.125,0,-2.1458,-2.1463,-2.1434,-2.1431,-2.1419,-2.1414,-2.1408,-2.1376,-2.137,-2.1348,-2.1352,-2.1341,-2.133,-2.1318,-2.1293,-2.1281,-2.1268,-2.1291,-2.1266,-2.1275,-2.1268,-2.1268,-2.1268,-2.1297,-2.1298,-2.1299,-2.1299,0,-2.1518,-2.1504,-2.1496,-2.1484,-2.1477,-2.1465,-2.1452,-2.1451,-2.1415,-2.1411,-2.1402,-2.1394,-2.1378,-2.1367,-2.135,-2.1336,-2.1312,-2.1307,-2.131,-2.1319,-2.1329,-2.1323,-2.1251,-2.1306,-2.1305,-2.1305,-2.1304,-2.1304,-2.1565,-2.1567,-2.1547,-2.1539,-2.1526,-2.1514,-2.1513,-2.1493,-2.1485,-2.147,-2.1452,-2.1445,-2.1424,-2.14,-2.1387,-2.1381,-2.1368,-2.1372,-2.1373,-2.1374,-2.1378,-2.1331,-2.1378,-2.1378,-2.1377,-2.1377,-2.1377,0,-2.1622,-2.1608,-2.1601,-2.1583,-2.1577,-2.1555,-2.1539,-2.1534,-2.1529,-2.1513,-2.1503,-2.1492,-2.1482,-2.1456,-2.1442,-2.1442,-2.1431,-2.144,-2.1439,-2.1436,-2.1391,-2.139,-2.1449,-2.1449,-2.1449,-2.1449,-2.1449,-2.1449,-2.1652,-2.1654,-2.1638,-2.1634,-2.1619,-2.1612,-2.1605,-2.1593,-2.158,-2.157,-2.1561,-2.1544,-2.1524,-2.1508,-2.1497,-2.149,-2.1486,-2.1499,-2.1488,-2.1446,-2.1439,-2.1433,-2.1431,-2.1498,-2.1498,-2.1533,-2.1533,-2.1533]},{"header":{"parameterUnit":"m.s-1","parameterCategory":1,"la1":30.2991,"la2":30.254,"lo1":-89.0895,"lo2":-89.0444,"dy":0.0017,"dx":0.0017,"nx":28,"ny":28,"refTime":"2023-08-28T21:00:00:Z","depth":0,"parameterNumber":3,"parameterNumberName":"V-component_of_WINDS"},"data":[0,0,0,0,0,0,0,0,0,0,0,0,0,0,0,0,0,0,0,0,0,0,0,0,0,0,0,0,0,0,0,0,0,0,0,0,0,0,0,0,0,0,0,0,0,0,0,0,0,0,0,0,0,0,0,0,0,0,-3.2202,-3.2203,0,-3.2217,-3.2218,-3.2218,-3.2183,-3.2182,-3.2181,-3.218,-3.2193,-3.2194,-3.2195,0,0,0,0,0,0,0,0,0,0,0,0,0,-3.2141,-3.2143,-3.2202,-3.2203,-3.2203,-3.2217,-3.2218,-3.2218,-3.2183,-3.2182,-3.2181,-3.2179,-3.2192,-3.2194,-3.2195,0,0,0,0,0,0,0,0,0,0,0,0,0,-3.2163,-3.2143,-3.2202,-3.2187,-3.2186,-3.2217,-3.2218,-3.2218,-3.2184,-3.2182,-3.218,-3.2179,-3.2192,-3.2194,-3.2196,-3.2241,0,0,-3.2202,-3.2203,0,0,0,0,0,0,0,0,-3.2162,-3.2165,-3.2189,-3.2189,-3.2187,-3.2197,-3.2201,-3.2226,-3.2184,-3.2185,-3.218,-3.2178,-3.2195,-3.2197,-3.2203,-3.2242,-3.2242,-3.2202,-3.2203,-3.2204,-3.2205,0,0,0,0,0,0,0,-3.2161,-3.2165,-3.2208,-3.219,-3.2188,-3.2179,-3.218,-3.2205,-3.2199,-3.2184,-3.2182,-3.2184,-3.2194,-3.2201,-3.2203,-3.2242,-3.2202,-3.2204,-3.2205,-3.2206,-3.232,-3.2321,0,0,0,0,0,0,-3.2161,-3.2164,-3.2208,-3.2209,-3.217,-3.2182,-3.2183,-3.2195,-3.2198,-3.2197,-3.2186,-3.2183,-3.2199,-3.2201,-3.2203,-3.2258,-3.2204,-3.2206,-3.2207,-3.2318,-3.232,-3.2322,0,0,0,0,0,0,-3.216,-3.2166,-3.2207,-3.2186,-3.219,-3.2184,-3.2198,-3.2196,-3.2204,-3.2199,-3.2198,-3.2194,-3.2197,-3.2201,-3.2232,-3.2257,-3.2207,-3.2209,-3.2316,-3.2318,-3.2321,-3.2366,0,0,0,0,0,0,-3.2159,-3.2165,-3.2183,-3.2186,-3.2191,-3.2237,-3.22,-3.2198,-3.2207,-3.2204,-3.2207,-3.2206,-3.2196,-3.2229,-3.2234,-3.2259,-3.221,-3.2313,-3.2317,-3.232,-3.2362,-3.237,-3.2376,0,0,0,0,0,-3.2156,-3.2194,-3.2184,-3.219,-3.2214,-3.2238,-3.2241,-3.223,-3.221,-3.2227,-3.2225,-3.2206,-3.2254,-3.2233,-3.2238,-3.2264,-3.2312,-3.2316,-3.232,-3.2359,-3.2368,-3.2376,0,0,0,0,0,0,-3.2193,-3.2194,-3.2183,-3.2223,-3.2231,-3.2232,-3.2254,-3.224,-3.2253,-3.2248,-3.2233,-3.2234,-3.2269,-3.2269,-3.2246,-3.2309,-3.2279,-3.2285,-3.2307,-3.2316,-3.2323,-3.2322,-3.2212,0,0,0,0,0,-3.2206,-3.2227,-3.2226,-3.2262,-3.2267,-3.226,-3.227,-3.2261,-3.2268,-3.227,-3.227,-3.2277,-3.2293,-3.2305,-3.232,-3.2362,-3.2362,-3.2382,-3.2389,-3.2395,-3.24,-3.2423,-3.2432,-3.2335,-3.2335,-3.2335,0,0,-3.2233,-3.2236,-3.225,-3.2269,-3.2274,-3.2296,-3.2263,-3.2286,-3.2302,-3.2274,-3.2304,-3.2304,-3.2311,-3.2348,-3.2365,-3.235,-3.2427,-3.24,-3.2405,-3.2407,-3.2428,-3.2438,-3.2446,-3.2338,-3.2337,-3.2337,0,0,-3.2292,-3.2297,-3.2327,-3.2333,-3.2342,-3.2337,-3.2344,-3.2348,-3.2347,-3.2378,-3.2358,-3.2375,-3.2404,-3.241,-3.2416,-3.2479,-3.2462,-3.2484,-3.2521,-3.2544,-3.2552,-3.2558,-3.2581,-3.259,-3.2489,-3.2489,-3.2489,0,-3.2324,-3.2356,-3.2345,-3.237,-3.2379,-3.2356,-3.2387,-3.2393,-3.2405,-3.2412,-3.2395,-3.2431,-3.2434,-3.2473,-3.2488,-3.2494,-3.2502,-3.2484,-3.2552,-3.2558,-3.2564,-3.2586,-3.2595,-3.2492,-3.2491,-3.2491,-3.2491,0,-3.2395,-3.2418,-3.2441,-3.2456,-3.2467,-3.2495,-3.2487,-3.25,-3.249,-3.2487,-3.2519,-3.2521,-3.2537,-3.2545,-3.2535,-3.2583,-3.2573,-3.2554,-3.2525,-3.2577,-3.2597,-3.2605,-3.2495,-3.2494,-3.2494,-3.2493,0,0,-3.2478,-3.2486,-3.2495,-3.2502,-3.251,-3.2526,-3.2553,-3.2569,-3.2581,-3.259,-3.2612,-3.2638,-3.2621,-3.2628,-3.2618,-3.2638,-3.2689,-3.2617,-3.2617,-3.2631,-3.2742,-3.2757,-3.2767,-3.2677,-3.2679,-3.268,-3.2742,0,-3.2538,-3.2585,-3.2576,-3.2622,-3.2643,-3.2621,-3.2645,-3.2652,-3.265,-3.2666,-3.2663,-3.2682,-3.2658,-3.2662,-3.2681,-3.2679,-3.2711,-3.2674,-3.2698,-3.2699,-3.2698,-3.2777,-3.2793,-3.2851,-3.275,-3.2751,-3.2752,0,-3.2614,-3.2628,-3.2676,-3.2682,-3.269,-3.2711,-3.2726,-3.2742,-3.275,-3.2747,-3.2756,-3.2742,-3.2768,-3.2738,-3.2774,-3.2749,-3.2758,-3.2758,-3.276,-3.2762,-3.2729,-3.2782,-3.2869,-3.2878,-3.2764,-3.2763,-3.2762,0,-3.2671,-3.2701,-3.2734,-3.274,-3.2747,-3.2763,-3.2766,-3.2772,-3.2783,-3.2795,-3.2802,-3.2816,-3.2824,-3.2836,-3.2827,-3.2805,-3.2864,-3.2833,-3.2862,-3.2863,-3.2876,-3.2875,-3.2966,-3.2881,-3.2881,-3.288,-3.288,0,-3.2739,-3.2769,-3.276,-3.2781,-3.2815,-3.2803,-3.2836,-3.2837,-3.2843,-3.2862,-3.2844,-3.2863,-3.2849,-3.2867,-3.2859,-3.289,-3.2894,-3.2892,-3.289,-3.2894,-3.2895,-3.29,-3.2896,-3.2883,-3.2882,-3.2882,-3.2881,0,-3.2808,-3.2803,-3.2838,-3.2842,-3.2844,-3.2869,-3.2872,-3.289,-3.2887,-3.2913,-3.2918,-3.2913,-3.2932,-3.2924,-3.2944,-3.294,-3.298,-3.2972,-3.2978,-3.2976,-3.3006,-3.3004,-3.3104,-3.3117,-3.3023,-3.3024,-3.3025,0,-3.2852,-3.2875,-3.2882,-3.2895,-3.29,-3.2921,-3.2932,-3.2921,-3.2933,-3.2944,-3.2962,-3.298,-3.2994,-3.3027,-3.3024,-3.304,-3.3032,-3.3067,-3.3035,-3.3038,-3.3034,-3.3033,-3.3035,-3.3073,-3.3074,-3.3075,-3.3076,0,-3.2931,-3.2928,-3.2945,-3.2962,-3.2977,-3.2989,-3.3,-3.3011,-3.3001,-3.3015,-3.3036,-3.3047,-3.3069,-3.3087,-3.3101,-3.3104,-3.3088,-3.3086,-3.3094,-3.3099,-3.3102,-3.3101,-3.2996,-3.3084,-3.3083,-3.3082,-3.3082,-3.3082,-3.2989,-3.3009,-3.3018,-3.3038,-3.3046,-3.3057,-3.3075,-3.3075,-3.3092,-3.311,-3.3102,-3.3126,-3.3133,-3.315,-3.3155,-3.3173,-3.316,-3.3171,-3.3174,-3.3177,-3.3181,-3.3098,-3.3175,-3.3175,-3.3175,-3.3175,-3.3175,0,-3.3068,-3.3073,-3.3092,-3.3108,-3.3124,-3.3109,-3.3121,-3.3135,-3.3157,-3.3165,-3.318,-3.3204,-3.3222,-3.3221,-3.3237,-3.3252,-3.3246,-3.3257,-3.3256,-3.3257,-3.3192,-3.3184,-3.3262,-3.3262,-3.3262,-3.3262,-3.3262,-3.3262,-3.3111,-3.3145,-3.3143,-3.318,-3.3184,-3.3209,-3.3216,-3.3226,-3.3233,-3.3261,-3.3276,-3.3276,-3.3281,-3.3298,-3.3313,-3.3313,-3.332,-3.3334,-3.3331,-3.327,-3.3262,-3.3253,-3.3246,-3.3336,-3.3336,-3.3395,-3.3395,-3.3396]}]]